Flag for Belgium Weather past 2 weeks in Bruges, Belgium

Now
46 °F

Scattered clouds.


Feels Like: 40 °F
Forecast: 38 / 46 °F
Wind: 15 mph from West

Location: Oostende Airport

Current Time: Mar 4, 2015 at 5:02:24 PM

Latest Report: Mar 4, 2015 at 4:20 PM


Visibility: N/A

Pressure: 30.42 "Hg

Humidity: 71%

Dew point: 37 °F

Location of BrugesLocation

Historic Weather in Bruges — Graph

°F

Bruges temperature yesterday

Maximum temperature yesterday: 48 °F (at 2:20 PM)
Minimum temperature yesterday: 34 °F (at 4:50 AM)
Average temperature yesterday: 41 °F

Past Weeks' High & Low Weather Summary

 TemperatureHumidityPressure
High50 °F (Mar 1, 4:20 AM)100% (Feb 17, 8:50 PM)30.77 "Hg (Feb 17, 8:50 PM)
Low28 °F (Feb 18, 2:20 AM)53% (Mar 2, 3:20 PM)29.30 "Hg (Feb 23, 4:20 AM)
Average41 °F83%29.91 "Hg
* Reported Feb 17 3:20 PM — Mar 4 3:50 PM, Bruges, Weather by CustomWeather, © 2015

Note: Actual official high and low records may vary slightly from our data, if they occured in-between our weather recording intervals... More about our weather records

Advertising

Bruges weather history for previous 24 hours

 ConditionsComfort  
Time TempWeatherWind HumidityBarometerVisibility
3:50 PM
Wed, Mar 4
45 °FScattered clouds.16 mph76%30.42 "HgN/A
3:20 PM46 °FPassing clouds.17 mph71%30.39 "HgN/A
2:50 PM45 °FPassing clouds.18 mph71%30.39 "HgN/A
2:20 PM45 °FPassing clouds.18 mph71%30.39 "HgN/A
1:50 PM45 °FPassing clouds.20 mph71%30.36 "HgN/A
1:20 PM45 °FScattered clouds.21 mph71%30.36 "HgN/A
12:50 PM45 °FScattered clouds.22 mph71%30.36 "HgN/A
12:20 PM43 °FScattered clouds.21 mph71%30.33 "HgN/A
11:50 AM43 °FPartly sunny.21 mph71%30.33 "HgN/A
11:20 AM43 °FPartly sunny.18 mph76%30.33 "HgN/A
10:50 AM43 °FPassing clouds.20 mph76%30.30 "HgN/A
10:20 AM43 °FPassing clouds.20 mph76%30.30 "HgN/A
9:50 AM43 °FPassing clouds.21 mph71%30.30 "HgN/A
9:20 AM41 °FPassing clouds.20 mph76%30.27 "HgN/A
8:50 AM41 °FPassing clouds.18 mph76%30.27 "HgN/A
8:20 AM41 °FScattered clouds.17 mph76%30.27 "HgN/A
7:50 AM39 °FPassing clouds.17 mph81%30.24 "HgN/A
7:20 AM39 °FPassing clouds.16 mph81%30.24 "HgN/A
6:50 AM41 °FPassing clouds.17 mph76%30.21 "HgN/A
6:20 AM39 °FPassing clouds.17 mph81%30.21 "HgN/A
5:50 AM41 °FPassing clouds.17 mph76%30.21 "HgN/A
5:20 AM39 °FPassing clouds.17 mph81%30.18 "HgN/A
4:50 AM41 °FPassing clouds.20 mph76%30.18 "HgN/A
4:20 AM41 °FPassing clouds.21 mph76%30.18 "HgN/A
3:50 AM41 °FPassing clouds.21 mph76%30.18 "HgN/A
3:20 AM41 °FPassing clouds.21 mph76%30.18 "HgN/A
2:50 AM41 °FPassing clouds.21 mph70%30.15 "HgN/A
2:20 AM41 °FPassing clouds.20 mph70%30.15 "HgN/A
1:50 AM41 °FPassing clouds.22 mph70%30.15 "HgN/A
1:20 AM41 °FPassing clouds.23 mph70%30.15 "HgN/A
12:50 AM41 °FPassing clouds.23 mph70%30.15 "HgN/A
12:20 AM41 °FPassing clouds.22 mph70%30.15 "HgN/A
11:50 PM
Tue, Mar 3
41 °FPassing clouds.22 mph70%30.15 "HgN/A
11:20 PM41 °FPassing clouds.21 mph66%30.12 "HgN/A
10:50 PM41 °FPassing clouds.18 mph76%30.12 "HgN/A
10:20 PM41 °FPassing clouds.15 mph81%30.09 "HgN/A
9:50 PM41 °FPassing clouds.12 mph81%30.09 "HgN/A
9:20 PM41 °FPassing clouds.9 mph81%30.09 "HgN/A
8:50 PM43 °FPassing clouds.12 mph76%30.09 "HgN/A
8:20 PM43 °FPassing clouds.16 mph81%30.07 "HgN/A
7:50 PM43 °FPassing clouds.15 mph87%30.07 "HgN/A
7:20 PM43 °FPassing clouds.16 mph81%30.04 "HgN/A
6:50 PM43 °FPassing clouds.13 mph81%30.04 "HgN/A
6:20 PM43 °FPassing clouds.17 mph61%30.04 "HgN/A
5:50 PM45 °FScattered clouds.20 mph76%30.01 "HgN/A
5:20 PM45 °FPassing clouds.21 mph81%30.01 "HgN/A
Weather by CustomWeather, © 2015

See weather overviewHow to use our weather pages